Time,TemperatureF,DewpointF,PressureIn,WindDirection,WindDirectionDegrees,WindSpeedMPH,WindSpeedGustMPH,Humidity,HourlyPrecipIn,Conditions,Clouds,dailyrainin,SoftwareType,DateUTC
2013-03-17 00:03:00,65.0,48.0,30.01,NE,45,2.0,3.0,54,0.00,,,0.00,,2013-03-17 04:03:00,
2013-03-17 00:13:00,65.0,48.0,30.01,NE,45,2.0,3.0,54,0.00,,,0.00,,2013-03-17 04:13:00,
2013-03-17 00:23:00,64.0,48.0,30.01,NE,51,5.0,6.0,57,0.00,,,0.00,,2013-03-17 04:23:00,
2013-03-17 00:32:00,63.0,48.0,30.01,NNE,28,0.0,0.0,58,0.00,,,0.00,,2013-03-17 04:32:00,
2013-03-17 00:43:00,63.0,48.0,30.01,NNE,28,0.0,0.0,58,0.00,,,0.00,,2013-03-17 04:43:00,
2013-03-17 00:53:00,64.0,48.0,30.01,North,349,1.0,2.0,56,0.00,,,0.00,,2013-03-17 04:53:00,
2013-03-17 01:03:00,63.0,48.0,30.01,North,350,1.0,2.0,58,0.00,,,0.00,,2013-03-17 05:03:00,
2013-03-17 01:12:00,63.0,48.0,30.01,North,350,1.0,2.0,58,0.00,,,0.00,,2013-03-17 05:12:00,
2013-03-17 01:22:00,63.0,48.0,30.02,ENE,72,1.0,2.0,57,0.00,,,0.00,,2013-03-17 05:22:00,
2013-03-17 01:32:00,63.0,48.0,30.03,NNE,30,1.0,2.0,58,0.00,,,0.00,,2013-03-17 05:32:00,
2013-03-17 01:42:00,63.0,48.0,30.03,NNE,30,1.0,2.0,58,0.00,,,0.00,,2013-03-17 05:42:00,
2013-03-17 01:52:00,62.0,48.0,30.03,NNE,21,3.0,4.0,60,0.00,,,0.00,,2013-03-17 05:52:00,
2013-03-17 02:02:00,61.0,48.0,30.02,North,10,0.0,2.0,62,0.00,,,0.00,,2013-03-17 06:02:00,
2013-03-17 02:12:00,61.0,48.0,30.02,North,10,0.0,2.0,62,0.00,,,0.00,,2013-03-17 06:12:00,
2013-03-17 02:22:00,61.0,48.0,30.03,ENE,68,2.0,3.0,63,0.00,,,0.00,,2013-03-17 06:22:00,
2013-03-17 02:32:00,60.0,47.0,30.03,NE,37,0.0,0.0,63,0.00,,,0.00,,2013-03-17 06:32:00,
2013-03-17 02:42:00,60.0,47.0,30.03,NE,37,0.0,0.0,63,0.00,,,0.00,,2013-03-17 06:42:00,
2013-03-17 02:52:00,60.0,47.0,30.03,North,1,1.0,1.0,63,0.00,,,0.00,,2013-03-17 06:52:00,
2013-03-17 03:02:00,60.0,48.0,30.03,North,0,0.0,1.0,65,0.00,,,0.00,,2013-03-17 07:02:00,
2013-03-17 03:12:00,60.0,48.0,30.03,North,0,0.0,1.0,65,0.00,,,0.00,,2013-03-17 07:12:00,
2013-03-17 03:22:00,59.0,48.0,30.03,North,0,0.0,0.0,67,0.00,,,0.00,,2013-03-17 07:22:00,
2013-03-17 03:32:00,59.0,47.0,30.03,North,1,0.0,0.0,64,0.00,,,0.00,,2013-03-17 07:32:00,
2013-03-17 03:42:00,59.0,47.0,30.03,North,1,0.0,0.0,64,0.00,,,0.00,,2013-03-17 07:42:00,
2013-03-17 03:52:00,58.0,47.0,30.03,North,0,0.0,0.0,68,0.00,,,0.00,,2013-03-17 07:52:00,
2013-03-17 04:03:00,56.0,47.0,30.02,East,83,2.0,3.0,72,0.00,,,0.00,,2013-03-17 08:03:00,
2013-03-17 04:13:00,57.0,48.0,30.02,NNE,17,0.0,0.0,71,0.00,,,0.00,,2013-03-17 08:13:00,
2013-03-17 04:22:00,57.0,48.0,30.02,NNE,17,0.0,0.0,71,0.00,,,0.00,,2013-03-17 08:22:00,
2013-03-17 04:32:00,56.0,48.0,30.01,NE,53,3.0,3.0,74,0.00,,,0.00,,2013-03-17 08:32:00,
2013-03-17 04:42:00,56.0,48.0,30.01,NE,53,3.0,3.0,74,0.00,,,0.00,,2013-03-17 08:42:00,
2013-03-17 04:52:00,56.0,48.0,30.01,West,260,1.0,2.0,75,0.00,,,0.00,,2013-03-17 08:52:00,
2013-03-17 05:03:00,55.0,48.0,30.01,West,262,2.0,3.0,76,0.00,,,0.00,,2013-03-17 09:03:00,
2013-03-17 05:12:00,55.0,48.0,30.01,West,262,2.0,3.0,76,0.00,,,0.00,,2013-03-17 09:12:00,
2013-03-17 05:22:00,56.0,48.0,30.01,SW,233,0.0,0.0,75,0.00,,,0.00,,2013-03-17 09:22:00,
2013-03-17 05:32:00,55.0,48.0,30.01,WSW,239,1.0,1.0,76,0.00,,,0.00,,2013-03-17 09:32:00,
2013-03-17 05:43:00,55.0,48.0,30.01,WSW,239,1.0,1.0,76,0.00,,,0.00,,2013-03-17 09:43:00,
2013-03-17 05:53:00,55.0,48.0,30.02,SW,215,1.0,2.0,77,0.00,,,0.00,,2013-03-17 09:53:00,
2013-03-17 06:03:00,55.0,48.0,30.03,SSW,195,0.0,0.0,77,0.00,,,0.00,,2013-03-17 10:03:00,
2013-03-17 06:13:00,55.0,48.0,30.03,SSW,195,0.0,0.0,77,0.00,,,0.00,,2013-03-17 10:13:00,
2013-03-17 06:23:00,55.0,48.0,30.03,SSW,195,0.0,0.0,77,0.00,,,0.00,,2013-03-17 10:23:00,
2013-03-17 06:33:00,54.0,48.0,30.03,SSW,195,0.0,0.0,79,0.00,,,0.00,,2013-03-17 10:33:00,
2013-03-17 06:42:00,54.0,48.0,30.03,SSW,195,0.0,0.0,79,0.00,,,0.00,,2013-03-17 10:42:00,
2013-03-17 06:52:00,53.0,47.0,30.03,South,177,0.0,0.0,80,0.00,,,0.00,,2013-03-17 10:52:00,
2013-03-17 07:02:00,52.0,47.0,30.03,South,177,0.0,0.0,83,0.00,,,0.00,,2013-03-17 11:02:00,
2013-03-17 07:12:00,52.0,47.0,30.03,South,177,0.0,0.0,83,0.00,,,0.00,,2013-03-17 11:12:00,
2013-03-17 07:22:00,52.0,47.0,30.03,South,177,0.0,0.0,83,0.00,,,0.00,,2013-03-17 11:22:00,
2013-03-17 07:32:00,51.0,47.0,30.04,North,6,1.0,2.0,85,0.00,,,0.00,,2013-03-17 11:32:00,
2013-03-17 07:42:00,51.0,47.0,30.04,North,6,1.0,2.0,85,0.00,,,0.00,,2013-03-17 11:42:00,
2013-03-17 07:52:00,51.0,47.0,30.05,North,6,0.0,0.0,85,0.00,,,0.00,,2013-03-17 11:52:00,
2013-03-17 08:02:00,51.0,46.0,30.05,North,6,0.0,0.0,84,0.00,,,0.00,,2013-03-17 12:02:00,
2013-03-17 08:12:00,51.0,46.0,30.05,North,6,0.0,0.0,84,0.00,,,0.00,,2013-03-17 12:12:00,
2013-03-17 08:22:00,51.0,47.0,30.06,SSE,159,0.0,0.0,85,0.00,,,0.00,,2013-03-17 12:22:00,
2013-03-17 08:33:00,51.0,47.0,30.06,SW,226,0.0,1.0,86,0.00,,,0.00,,2013-03-17 12:33:00,
2013-03-17 08:43:00,51.0,47.0,30.06,SW,226,0.0,1.0,86,0.00,,,0.00,,2013-03-17 12:43:00,
2013-03-17 08:52:00,52.0,48.0,30.06,SW,226,0.0,0.0,85,0.00,,,0.00,,2013-03-17 12:52:00,
2013-03-17 09:02:00,53.0,48.0,30.06,SW,226,0.0,0.0,83,0.00,,,0.00,,2013-03-17 13:02:00,
2013-03-17 09:12:00,53.0,48.0,30.06,SW,226,0.0,0.0,83,0.00,,,0.00,,2013-03-17 13:12:00,
2013-03-17 09:22:00,53.0,48.0,30.06,SW,226,0.0,0.0,82,0.00,,,0.00,,2013-03-17 13:22:00,
2013-03-17 09:32:00,54.0,49.0,30.07,SW,218,1.0,2.0,84,0.00,,,0.00,,2013-03-17 13:32:00,
2013-03-17 09:42:00,54.0,49.0,30.07,SW,218,1.0,2.0,84,0.00,,,0.00,,2013-03-17 13:42:00,
2013-03-17 09:52:00,56.0,49.0,30.07,South,172,0.0,0.0,78,0.00,,,0.00,,2013-03-17 13:52:00,
2013-03-17 10:02:00,57.0,50.0,30.07,NNE,23,0.0,1.0,76,0.00,,,0.00,,2013-03-17 14:02:00,
2013-03-17 10:12:00,57.0,50.0,30.07,NNE,23,0.0,1.0,76,0.00,,,0.00,,2013-03-17 14:12:00,
2013-03-17 10:22:00,60.0,50.0,30.08,SSW,197,3.0,4.0,70,0.00,,,0.00,,2013-03-17 14:22:00,
2013-03-17 10:32:00,62.0,51.0,30.07,ESE,104,0.0,0.0,68,0.00,,,0.00,,2013-03-17 14:32:00,
2013-03-17 10:42:00,62.0,51.0,30.07,ESE,104,0.0,0.0,68,0.00,,,0.00,,2013-03-17 14:42:00,
2013-03-17 10:52:00,65.0,50.0,30.08,South,191,4.0,5.0,59,0.00,,,0.00,,2013-03-17 14:52:00,
2013-03-17 11:02:00,68.0,53.0,30.08,South,170,4.0,5.0,58,0.00,,,0.00,,2013-03-17 15:02:00,
2013-03-17 11:12:00,68.0,53.0,30.08,South,170,4.0,5.0,58,0.00,,,0.00,,2013-03-17 15:12:00,
2013-03-17 11:23:00,70.0,51.0,30.07,SSW,193,2.0,3.0,51,0.00,,,0.00,,2013-03-17 15:23:00,
2013-03-17 11:33:00,72.0,52.0,30.07,SE,145,5.0,6.0,50,0.00,,,0.00,,2013-03-17 15:33:00,
2013-03-17 11:43:00,72.0,52.0,30.07,SE,145,5.0,6.0,50,0.00,,,0.00,,2013-03-17 15:43:00,
2013-03-17 11:52:00,73.0,51.0,30.06,SSE,155,6.0,9.0,46,0.00,,,0.00,,2013-03-17 15:52:00,
2013-03-17 12:03:00,74.0,51.0,30.06,South,191,6.0,8.0,45,0.00,,,0.00,,2013-03-17 16:03:00,
2013-03-17 12:12:00,74.0,51.0,30.06,South,191,6.0,8.0,45,0.00,,,0.00,,2013-03-17 16:12:00,
2013-03-17 12:23:00,75.0,52.0,30.06,WSW,242,5.0,7.0,44,0.00,,,0.00,,2013-03-17 16:23:00,
2013-03-17 12:33:00,75.0,51.0,30.06,WNW,295,7.0,10.0,43,0.00,,,0.00,,2013-03-17 16:33:00,
2013-03-17 12:43:00,75.0,51.0,30.06,WNW,295,7.0,10.0,43,0.00,,,0.00,,2013-03-17 16:43:00,
2013-03-17 12:52:00,75.0,51.0,30.06,WSW,238,6.0,9.0,43,0.00,,,0.00,,2013-03-17 16:52:00,
2013-03-17 13:02:00,73.0,50.0,30.05,WNW,287,6.0,8.0,45,0.00,,,0.00,,2013-03-17 17:02:00,
2013-03-17 13:12:00,73.0,50.0,30.05,WNW,287,6.0,8.0,45,0.00,,,0.00,,2013-03-17 17:12:00,
2013-03-17 13:22:00,75.0,50.0,30.04,SE,141,7.0,11.0,42,0.00,,,0.00,,2013-03-17 17:22:00,
2013-03-17 13:33:00,75.0,51.0,30.03,South,191,4.0,6.0,43,0.00,,,0.00,,2013-03-17 17:33:00,
2013-03-17 13:42:00,75.0,51.0,30.03,South,191,4.0,6.0,43,0.00,,,0.00,,2013-03-17 17:42:00,
2013-03-17 13:52:00,75.0,50.0,30.03,SW,231,8.0,11.0,41,0.00,,,0.00,,2013-03-17 17:52:00,
2013-03-17 14:02:00,75.0,50.0,30.03,SW,231,8.0,11.0,41,0.00,,,0.00,,2013-03-17 18:02:00,
2013-03-17 14:12:00,75.0,50.0,30.03,SW,231,8.0,11.0,41,0.00,,,0.00,,2013-03-17 18:12:00,
2013-03-17 14:22:00,75.0,50.0,30.03,SW,231,8.0,11.0,41,0.00,,,0.00,,2013-03-17 18:22:00,
2013-03-17 14:32:00,75.0,50.0,30.03,SW,231,8.0,11.0,41,0.00,,,0.00,,2013-03-17 18:32:00,
2013-03-17 14:52:00,77.0,49.0,30.00,WSW,246,5.0,7.0,37,0.00,,,0.00,,2013-03-17 18:52:00,
2013-03-17 15:02:00,76.0,49.0,29.99,SSE,163,5.0,8.0,39,0.00,,,0.00,,2013-03-17 19:02:00,
2013-03-17 15:12:00,76.0,49.0,29.99,SSE,163,5.0,8.0,39,0.00,,,0.00,,2013-03-17 19:12:00,
2013-03-17 15:22:00,76.0,50.0,29.99,SW,226,7.0,10.0,40,0.00,,,0.00,,2013-03-17 19:22:00,
2013-03-17 15:33:00,76.0,50.0,29.99,SW,226,7.0,10.0,40,0.00,,,0.00,,2013-03-17 19:33:00,
2013-03-17 15:42:00,76.0,50.0,29.99,SW,226,7.0,10.0,40,0.00,,,0.00,,2013-03-17 19:42:00,
2013-03-17 15:53:00,76.0,50.0,29.99,SW,226,7.0,10.0,40,0.00,,,0.00,,2013-03-17 19:53:00,
2013-03-17 22:02:00,56.0,49.0,30.16,ENE,72,6.0,8.0,78,0.00,,,0.00,,2013-03-18 02:02:00,
2013-03-17 22:12:00,56.0,49.0,30.16,ENE,72,6.0,8.0,78,0.00,,,0.00,,2013-03-18 02:12:00,
2013-03-17 22:22:00,54.0,48.0,30.16,ESE,115,8.0,13.0,80,0.00,,,0.00,,2013-03-18 02:22:00,
2013-03-17 22:32:00,54.0,48.0,30.18,East,91,6.0,9.0,80,0.00,,,0.00,,2013-03-18 02:32:00,
2013-03-17 22:42:00,54.0,48.0,30.18,East,91,6.0,9.0,80,0.00,,,0.00,,2013-03-18 02:42:00,
2013-03-17 22:52:00,54.0,48.0,30.19,SE,139,3.0,6.0,80,0.00,,,0.00,,2013-03-18 02:52:00,
2013-03-17 23:03:00,53.0,47.0,30.19,ESE,107,5.0,6.0,80,0.00,,,0.00,,2013-03-18 03:03:00,
2013-03-17 23:11:00,53.0,47.0,30.19,ESE,107,5.0,6.0,80,0.00,,,0.00,,2013-03-18 03:11:00,
2013-03-17 23:22:00,52.0,46.0,30.20,East,98,5.0,6.0,81,0.00,,,0.00,,2013-03-18 03:22:00,
2013-03-17 23:33:00,52.0,46.0,30.20,ENE,63,3.0,5.0,81,0.00,,,0.00,,2013-03-18 03:33:00,
2013-03-17 23:42:00,52.0,46.0,30.20,ENE,63,3.0,5.0,81,0.00,,,0.00,,2013-03-18 03:42:00,
2013-03-17 23:53:00,51.0,45.0,30.20,ENE,65,0.0,1.0,81,0.00,,,0.00,,2013-03-18 03:53:00,